Regional Weather Roundup
Issued by NWS Charleston, SC

Current Version | Previous Version | Graphics & Text | Print | Product List | Glossary On
Versions: 1 2 3 4 5 6 7 8 9 10 11 12 13 14 15 16 17 18 19 20 21 22 23 24 25 26 27 28 29 30 31 32 33 34 35 36 37 38 39 40 41 42 43 44 45 46 47 48 49 50
000
ASUS42 KCHS 280012
RWRCHS

REGIONAL WEATHER ROUNDUP
NATIONAL WEATHER SERVICE CHARLESTON SC
800 PM EDT TUE JUN 27 2017

NOTE: "FAIR" INDICATES FEW OR NO CLOUDS BELOW 12,000 FEET WITH NO
SIGNIFICANT WEATHER AND/OR OBSTRUCTIONS TO VISIBILITY.

NOT ALL STATIONS ARE QUALITY CONTROLLED. USE DATA WITH CAUTION...
ESPECIALLY DEWPOINT OBSERVATIONS.

SCZ027-030-031-034>040-042>050-280100-
...SOUTHEAST SOUTH CAROLINA...

CITY           SKY/WX    TMP DP  RH WIND       PRES   REMARKS
N CHARLESTON   CLOUDY    80  62  54 SE7       30.01S
6HR MIN TEMP:  80; 6HR MAX TEMP:  88;

WATERFRONT PRK   N/A     81  66  60 SE7       29.99S
JOHNS ISLAND   FAIR      79  66  65 CALM      30.01S
PINOPOLIS        N/A     81  68  65 VRB2      29.94S
MONCKS CORNER  FAIR      77  66  69 CALM      30.01S
SUMMERVILLE    FAIR      79  68  69 CALM      30.02S
BEAUFORT MCAS  CLOUDY    80  70  71 CALM      30.01R
6HR MIN TEMP:  80; 6HR MAX TEMP:  87;

BEAUFORT ARPT  FAIR      79  66  65 SE3       30.01S HAZE
HILTON HEAD IS NOT AVBL
WALTERBORO     CLOUDY    79  66  65 SE3       30.02S
ALLENDALE      FAIR      81  70  69 CALM      30.00R

...SOUTHERN MIDLANDS AND PEE DEE...

CITY           SKY/WX    TMP DP  RH WIND       PRES   REMARKS
GEORGETOWN     FAIR      77  70  78 CALM      30.02S
KINGSTREE      FAIR      77  70  78 CALM      30.01S
ORANGEBURG     CLOUDY    79  67  66 SE3       30.01S
6HR MIN TEMP:  79; 6HR MAX TEMP:  86;

BARNWELL       FAIR      82  70  65 CALM      30.01S
AIKEN          FAIR      81  59  47 N6        30.05S
MANNING        FAIR      79  72  78 E8G20     30.01S
COLUMBIA       CLOUDY    85  57  38 NE6       30.01R
6HR MIN TEMP:  84; 6HR MAX TEMP:  88;

SUMTER         CLOUDY    81  62  52 E3        29.99
6HR MIN TEMP:  81; 6HR MAX TEMP:  87;

FLORENCE       MOCLDY    83  61  47 N5        30.01S
6HR MIN TEMP:  83; 6HR MAX TEMP:  86;

MYRTLE BEACH   MOCLDY    79  64  61 CALM      30.01S
N MYRTLE BEACH PTCLDY    78  65  63 SW7       30.00S
6HR MIN TEMP:  78; 6HR MAX TEMP:  84;


$$

GAZ063-065-086>088-099>101-113>116-118-119-134>141-150-280100-
...SOUTHEAST GEORGIA...

CITY           SKY/WX    TMP DP  RH WIND       PRES   REMARKS
SAVANNAH ARPT  CLOUDY    79  66  64 S7        30.03R
6HR MIN TEMP:  75; 6HR MAX TEMP:  83; 6HR PCP:  0.01;

HUNTER AAF     CLOUDY    78  68  71 CALM      30.00
6HR MIN TEMP:  73; 6HR MAX TEMP:  81; 6HR PCP:  0.02;

FORT STEWART   CLOUDY    76  68  76 S3        30.01R
6HR MIN TEMP:  73; 6HR MAX TEMP:  86; 6HR PCP:  0.71;

STATESBORO     CLOUDY    80  71  75 S8        30.02R
SYLVANIA       CLOUDY    80  74  81 S5        30.02R
CLAXTON        FAIR      77  70  79 CALM      30.02R

...CSRA...CENTRAL AND FAR SOUTHEAST GEORGIA...

CITY           SKY/WX    TMP DP  RH WIND       PRES   REMARKS
THOMSON        CLOUDY    82  59  44 SE3       30.07R
AUGUSTA-BUSH   CLOUDY    85  63  47 E3        30.00R
6HR MIN TEMP:  85; 6HR MAX TEMP:  91;

AUGUSTA-DANIEL CLOUDY    86  53  32 E7        30.02R
SWAINSBORO     FAIR      79  72  78 CALM      30.02S
VIDALIA        CLOUDY    81  70  69 NE3       30.02R
EASTMAN        FAIR      81  59  47 CALM      30.04S
HAZLEHURST     FAIR      81  71  73 CALM      30.01R
ALMA           CLOUDY    76  68  76 SE3       30.02S
6HR MIN TEMP:  76; 6HR MAX TEMP:  89; 6HR PCP:  0.06;

WAYCROSS       CLOUDY    75  75 100 CALM      30.03S
JESUP          FAIR      73  66  78 CALM      30.03S
BAXLEY         FAIR      79  77  94 S6        30.02R
BRUNSWICK      LGT RAIN  73  72  94 CALM      30.04R
SAINT SIMONS   LGT RAIN  77  73  87 SE7       30.02R
6HR MIN TEMP:  76; 6HR MAX TEMP:  84; 6HR PCP:  0.03;


$$

SCZ027-028-034-036>038-045-046-048>050-GAZ119-141-280100-
...LAKE AND SUPPLEMENTAL COASTAL OBSERVATIONS...

STATION/POSITION TIME  TEMP    WIND        PRES    WAVE   SWELL
                       AIR SEA DIR/SP/G            HT/PER HT/PER/DIR
                 (UTC) (F)     (DEG/KT/KT) (MB)    (FT/S) (FT/S/D)
WINYAH BAY       2245   81     140/  3     1016.0
LAKE MURRAY      2320   83      80/  5/  6 1015.2
ACE BASIN NERRS  NOT AVBL
FORT PULASKI     2348   78 84  140/  3/  5 1016.8R
SAPELO ISLAND    2300   72        CALM     1016.0

$$

ANZ835-935-AMZ111-154-330-350-352-354-370-450-454-472-280100-
...C-MAN AND BUOY OBSERVATIONS...

STATION/POSITION TIME  TEMP    WIND        PRES    WAVE   SWELL
                       AIR SEA DIR/SP/G            HT/PER HT/PER/DIR
                 (UTC) (F)     (DEG/KT/KT) (MB)    (FT/S) (FT/S/D)
BUOY 41004       2350   80 81   90/  8/ 10 1015.6S   2/ 8   2/120/ 8
BUOY 41008       2350   80 82  120/ 10/ 14 1015.9R   2/ 3   2/130/ 7
FOLLY BEACH CMAN 2300   81     110/ 11/ 12 1016.7F
CAPERS NEARSHORE 2308   86 84  140/ 10/ 12 1016.1S
FRIPP NEARSHORE  2308   81 83  130/ 10/ 14 1015.6S


STATION/POSITION TIME  TEMP    WIND        PRES    WAVE   SWELL
                       AIR SEA DIR/SP/G            HT/PER HT/PER/DIR
                 (UTC) (F)     (DEG/KT/KT) (MB)    (FT/S) (FT/S/D)
5E ST. MARYS GA  2330      81                N/A     2/ 3
FRYING PAN BUOY  2350   80 81  120/  4/  6 1015.6F   1/ 8   2/110/ 8
BUOY 41025       2350   80 82  230/  4/  6 1015.6F   2/ 7   2/120/ 7
CAPE LOOKOUT NC  2300   80     210/  4/  5 1015.5F
BUOY 41002       2350   78 80  200/  6/  6 1016.3R   3/ 6   3/190/ 6
BUOY 41010       2350   80 84   60/  4/  6 1014.9F   3/ 7   2/130/ 7
ST AUGUSTINE FL  0000   76 80   60/  7/  8 1016.3R


$$




USA.gov is the U.S. government's official web portal to all federal, state and local government web resources and services.